Meteo Giornale » Osservazioni meteo Stati Uniti (USA) » Philadelphia Northeast
ore: 14:54 - Osservazioni Meteo Philadelphia Northeast
Lat. 40° 4' N Lon. 75° 0' W Alt. 36 metri s.l.m.
31 °C
Sereno
Temp. 24 Ore
23 °C
31 °C
Ovest/Sud-Ovest
14.8 Km/h
Dew point 22 °C
Umidità 58 %
Visibilità 10 Km
Il sole sorge alle ore 06:27
Il sole tramonta alle ore 19:31
| Data e Ora | Cielo e Fenomeni | T °C | DP °C | Um. % | Pres. hPa | Vis. km | Vento km/h | |
|---|---|---|---|---|---|---|---|---|
| Oggi h: 14:54 | Sereno | 31 | 22 | 58 | 1014 | 10 | O/SO 14.8 | |
| Oggi h: 13:54 | Poco Nuvoloso | 30 | 23 | 66 | 1015 | 10 | S 11.1 | |
| Oggi h: 12:54 | Pioggia | 28 | 23 | 74 | 1015 | 10 | O 7.4 | |
| Oggi h: 11:54 | Poco Nuvoloso | 27 | 23 | 78 | 1016 | 10 | N 5.5 | |
| Oggi h: 10:54 | Molto Nuvoloso | 27 | 23 | 78 | 1016 | 10 | O 11.1 | |
| Oggi h: 09:54 | Poco Nuvoloso | 26 | 23 | 83 | 1016 | 10 | O 9.3 | |
| Oggi h: 08:54 | Sereno | 26 | 23 | 83 | 1016 | 14 | O/SO 9.3 | |
| Oggi h: 08:10 | Poco Nuvoloso | 24 | 23 | 94 | 1016 | 13 | N 7.4 | |
| Oggi h: 07:54 | Nuvoloso | 24 | 23 | 94 | 1016 | 11 | SO 7.4 | |
| Oggi h: 06:54 | Foschia | 23 | 22 | 94 | 1016 | 6 | N 5.5 | |
| Oggi h: 05:54 | Foschia | 23 | 22 | 94 | 1016 | 10 | N 5.5 | |
| Oggi h: 05:24 | Poco Nuvoloso | 23 | 22 | 94 | 1016 | 11 | N 0 | |
| Oggi h: 04:54 | Poco Nuvoloso | 23 | 22 | 94 | 1017 | 11 | N 5.5 | |
| Oggi h: 04:07 | Coperto | 23 | 22 | 94 | 1017 | 11 | N 5.5 | |
| Oggi h: 03:54 | Foschia | 23 | 22 | 94 | 1017 | 10 | N 0 | |
| Oggi h: 02:54 | Molto Nuvoloso | 23 | 22 | 94 | 1017 | 13 | N 5.5 | |
| Oggi h: 02:31 | Coperto | 23 | 22 | 94 | 1017 | 14 | SO 11.1 | |
| Oggi h: 02:14 | Coperto | 23 | 22 | 94 | 1017 | 10 | SO 7.4 | |
| Oggi h: 01:54 | Coperto | 23 | 22 | 94 | 1017 | 10 | SO 11.1 | |
| Oggi h: 00:54 | Coperto | 23 | 21 | 88 | 1018 | 10 | N 5.5 | |
| Oggi h: 00:08 | Coperto | 23 | 21 | 88 | 1018 | 10 | N 0 | |
| Ieri h: 23:54 | Coperto | 23 | 21 | 88 | 1018 | 10 | N 0 | |
| Ieri h: 23:27 | Molto Nuvoloso | 23 | 21 | 88 | 1018 | 10 | N 5.5 | |
| Ieri h: 22:54 | Nuvoloso | 23 | 21 | 88 | 1018 | 10 | N 0 | |
| Ieri h: 21:54 | Sereno | 23 | 21 | 88 | 1018 | 10 | N 5.5 | |
| Ieri h: 20:54 | Molto Nuvoloso | 24 | 21 | 83 | 1018 | 10 | E/SE 7.4 | |
| Ieri h: 19:54 | Molto Nuvoloso | 24 | 20 | 78 | 1018 | 10 | N 0 | |
| Ieri h: 18:54 | Coperto | 26 | 19 | 65 | 1018 | 10 | N 0 | |
| Ieri h: 17:54 | Molto Nuvoloso | 26 | 19 | 65 | 1019 | 10 | N 0 | |
| Ieri h: 16:54 | Pioggia | 26 | 20 | 69 | 1019 | 10 | N 5.5 | |
| Ieri h: 15:54 | Coperto | 27 | 18 | 57 | 1019 | 10 | N 0 | |



